Regional Weather Roundup
Issued by NWS

Home | Current Version | Previous Version | Graphics & Text | Print | Product List | Glossary On
Versions: 1 2 3 4 5 6 7 8 9 10 11 12 13 14 15 16 17 18 19 20 21 22 23 24 25 26 27 28 29 30 31 32 33 34 35 36 37 38 39 40 41 42 43 44 45 46 47 48 49 50
000
ASUS43 KOAX 052102
RWRNE

WEATHER ROUNDUP FOR NEBRASKA
NATIONAL WEATHER SERVICE OMAHA NE
400 PM CDT THU MAY 05 2016

NOTES: SATELLITE DATA IS BEING USED TO AUGMENT CLOUD COVER ABOVE
       12000 FEET.
       "FAIR" INDICATES FEW OR NO CLOUDS BELOW 12,000 FEET WITH NO
       SIGNIFICANT WEATHER AND/OR OBSTRUCTIONS TO VISIBILITY.

  * THESE STATIONS DO NOT REPORT WEATHER SUCH AS RAIN...SNOW OR FOG.

NEZ001>004-019>022-054>056-052200-
NEBRASKA PANHANDLE

CITY           SKY/WX    TMP DP  RH WIND       PRES   REMARKS
SCOTTSBLUFF    CLOUDY    85  36  17 W5        29.97F
ALLIANCE       SUNNY     83  39  21 SW13      29.97F
CHADRON        SUNNY     84  41  21 CALM      29.91F
KIMBALL        CLOUDY    78  31  18 SW10      30.04F
SIDNEY         CLOUDY    82  37  20 SW13G22   30.03F
$$

NEZ057>060-069>072-079>082-052200-
SOUTHWEST NEBRASKA

CITY           SKY/WX    TMP DP  RH WIND       PRES   REMARKS
NORTH PLATTE   SUNNY     81  48  31 S15       30.00F
IMPERIAL       CLOUDY    82  41  23 S15       30.01F
MCCOOK         CLOUDY    79  50  36 S16G24    30.01F
$$

NEZ005>010-023>029-035>040-094-052200-
NORTH CENTRAL NEBRASKA

CITY           SKY/WX    TMP DP  RH WIND       PRES   REMARKS
VALENTINE      SUNNY     86  39  19 S13G26    29.93F
AINSWORTH      SUNNY     82  44  25 S10       29.96F
BROKEN BOW     LGT RAIN  81  52  36 S17G24    30.01F
ORD            SUNNY     78  50  37 S10       30.00F
$$

NEZ041-046>049-061>064-073>077-083>087-052200-
SOUTH CENTRAL NEBRASKA

CITY           SKY/WX    TMP DP  RH WIND       PRES   REMARKS
GRAND ISLAND   SUNNY     79  37  22 VRB6      30.03F
AURORA         SUNNY     79  36  21 S7        30.03F
HASTINGS       SUNNY     79  42  26 S9        30.03F
KEARNEY *      SUNNY     79  45  29 SW7       30.04F
YORK           SUNNY     77  34  20 CALM      30.03F
$$

NEZ011>018-030>034-042>045-052200-
NORTHEAST NEBRASKA

CITY           SKY/WX    TMP DP  RH WIND       PRES   REMARKS
NORFOLK        SUNNY     80  36  20 VRB3      30.00F
ALBION         SUNNY     79  40  24 SW8       30.01F
BLAIR          SUNNY     76  38  24 S5        30.03F
COLUMBUS *     SUNNY     79  36  21 CALM      30.03F
FREMONT        SUNNY     76  41  28 NE6       30.03F
TEKAMAH        SUNNY     76  42  29 S6        30.02F
$$

NEZ050>053-065>068-078-088>093-052200-
SOUTHEAST NEBRASKA

CITY           SKY/WX    TMP DP  RH WIND       PRES   REMARKS
LINCOLN        SUNNY     79  39  23 SE6       30.04F
OMAHA EPPLEY   MOSUNNY   76  40  27 NE5       30.03F
BEATRICE       SUNNY     77  38  24 CALM      30.03F
FALLS CITY     SUNNY     75  41  29 S5        30.05F
$$

NEZ044-045-051>053-067-052200-
OMAHA AREA

CITY           SKY/WX    TMP DP  RH WIND       PRES   REMARKS
OMAHA EPPLEY   MOSUNNY   76  40  27 NE5       30.03F
BLAIR          SUNNY     76  38  24 S5        30.03F
FREMONT        SUNNY     76  41  28 NE6       30.03F
OFFUTT AFB     SUNNY     75  40  28 VRB3      30.03F
$$



USA.gov is the U.S. government's official web portal to all federal, state and local government web resources and services.